Regional Weather Roundup
Issued by NWS Newport/Morehead, NC

Current Version | Previous Version | Graphics & Text | Print | Product List | Glossary On
Versions: 1 2 3 4 5 6 7 8 9 10 11 12 13 14 15 16 17 18 19 20 21 22 23 24 25 26 27 28 29 30 31 32 33 34 35 36 37 38 39 40 41 42 43 44 45 46 47 48 49 50
000 ASUS42 KMHX 281812 RWRMHX WEATHER ROUNDUP FOR EASTERN NORTH CAROLINA NATIONAL WEATHER SERVICE NEWPORT/MOREHEAD CITY NC 200 PM EDT SAT MAR 28 2015 NOTE: "FAIR" INDICATES FEW OR NO CLOUDS BELOW 12,000 FEET WITH NO SIGNIFICANT WEATHER AND/OR OBSTRUCTIONS TO VISIBILITY NCZ015>017-031-032-045>047-102-103-281900- NORTH COAST CITY SKY/WX TMP DP RH WIND PRES REMARKS EDENTON CLOUDY 40 31 71 NW13 30.03R ELIZABETH CITY CLOUDY 43 28 55 NW10 30.01R KITTY HAWK CLOUDY 41 30 65 W9 29.99R MANTEO CLOUDY 40 30 67 NW9 30.00S $$ NCZ045>047-081-094-103-104-281900- CENTRAL COAST CITY SKY/WX TMP DP RH WIND PRES REMARKS FRISCO CLOUDY 44 29 55 VRB5 29.99S SWANQUARTER N/A 41 N/A N/A NW9G20 29.97S $$ NCZ095-097-098-100-101-281900- SOUTHERN COAST CITY SKY/WX TMP DP RH WIND PRES REMARKS BEAUFORT PTSUNNY 50 36 58 NW13 30.00S CEDAR ISLAND N/A 46 N/A N/A W10G16 30.03S JACKSONVILLE PTSUNNY 48 32 53 NW10 30.01S PINEY ISLAND CLOUDY N/A N/A N/A W10 30.00S WILMINGTON PTSUNNY 49 30 48 W17 30.02S $$ NCZ011>013-027>030-043-044-078>080-089-090>093-098-281900- COASTAL PLAIN CITY SKY/WX TMP DP RH WIND PRES REMARKS AHOSKIE PTSUNNY 37 27 67 N8 30.04S CLINTON MOSUNNY 48 28 45 W12G20 30.04S ELIZABETHTOWN PTSUNNY 48 26 41 W7G17 30.04S GOLDSBORO MOSUNNY 47 32 55 W16G22 30.01S GREENVILLE MOSUNNY 43 27 52 NW7 30.04F HAVELOCK PTSUNNY 49 31 49 W10 30.02S KENANSVILLE PTSUNNY 47 24 40 W14 30.04S KINSTON MOSUNNY 46 28 49 W10G16 30.03F NEW BERN PTSUNNY 48 30 49 W10G20 30.02F RICHLANDS PTSUNNY 46 27 46 W8 30.02S ROCKY MOUNT PTSUNNY 44 22 41 NW16 30.04S WASHINGTON MOSUNNY 40 32 71 NW3 30.03S WHITEVILLE MOSUNNY 49 27 43 W12 30.03F $$ AMZ130-135-150-152-154-156-158-170-250-252-270-ANZ085-086-088-633-658-670-281900- MARINE OBSERVATIONS STATION/POSITION TIME TEMP WIND PRES WAVE SWELL AIR SEA DIR/SP/G HT/PER HT/PER (UTC) (F) (DEG/KT/KT) (MB) (FT/S) (FT/S) CHESAPEAKE LIGHT 1700 36 330/ 18/ 19 1015.8 64 E VA BEACH 1750 39 57 320/ 23/ 25 1014.2 9/ 7 DUCK 1700 39 42 340/ 12/ 13 1014.5 2 E DUCK 1711 42 N/A 6/ 7 2/11 10 NE DUCK NOT AVBL OREGON INLET 1700 39 45 360/ 12/ 16 1015.4 HATTERAS CG 1712 44 53 320/ 4/ 8 1015.9 CAPE LOOKOUT 1800 49 280/ 10/ 13 1015.5 BEAUFORT LAB 1712 47 56 300/ 6/ 12 1015.0 27 SE WRIGHTSVLE 1700 44 65 320/ 8/ 10 1018.0 5 SE WRIGHTSVLE 1700 49 56 330/ 8/ 10 1016.5 225 S CAPE HAT 1750 60 68 290/ 17/ 21 1015.5 13/10 11/10 41 SE CHARLESTON 1750 52 68 280/ 12/ 17 1017.7 4/ 7 3/ 7 $$

USA.gov is the U.S. government's official web portal to all federal, state and local government web resources and services.